KC9VAF Weather Reports


Display with metric or nautical units.
time (UTC)temp
F
wind
direction
speed
MPH
gust
MPH
rain 1hr
in
rain 24hr
in
rain mn
in
humidity
%
barometer
mb
20260906133406 71 78 2.0 2.0 0.00 0.00 0.00 82 1021.9
20260906132901 71 75 0.0 0.0 0.00 0.00 0.00 83 1021.7
20260906132356 70 79 0.0 0.0 0.00 0.00 0.00 84 1021.7
20260906131852 70 72 0.0 0.0 0.00 0.00 0.00 85 1021.6
20260906131347 70 95 1.0 1.0 0.00 0.00 0.00 85 1021.4
20260906130843 69 63 0.0 0.0 0.00 0.00 0.00 86 1021.6
20260906130342 69 147 3.0 3.0 0.00 0.00 0.00 85 1021.3
20260906125841 69 86 0.0 0.0 0.00 0.00 0.00 87 1021.0
20260906125338 68 88 0.0 0.0 0.00 0.00 0.00 87 1021.1
20260906124833 68 82 0.0 0.0 0.00 0.00 0.00 89 1021.2
20260906124330 67 67 1.0 2.0 0.00 0.00 0.00 92 1021.2
20260906123829 66 74 0.0 0.0 0.00 0.00 0.00 95 1021.1
20260906123324 66 78 0.0 0.0 0.00 0.00 0.00 96 1021.1
20260906122823 65 74 0.0 0.0 0.00 0.00 0.00 97 1021.1
20260906122318 65 74 0.0 0.0 0.00 0.00 0.00 97 1021.2
20260906121815 65 73 0.0 0.0 0.00 0.00 0.00 97 1021.0
20260906121311 65 70 0.0 0.0 0.00 0.00 0.00 97 1021.1
20260906120806 65 65 0.0 0.0 0.00 0.00 0.00 97 1020.9
20260906120257 65 69 0.0 0.0 0.00 0.00 0.00 97 1020.9
20260906115753 64 69 0.0 0.0 0.00 0.00 0.00 97 1020.7
20260906115242 64 69 0.0 0.0 0.00 0.00 0.00 97 1020.5
20260906114741 64 69 0.0 0.0 0.00 0.00 0.00 97 1020.7
20260906114237 64 69 0.0 0.0 0.00 0.00 0.00 97 1020.5
20260906113731 64 69 0.0 0.0 0.00 0.00 0.00 96 1020.6
20260906113230 64 72 0.0 0.0 0.00 0.00 0.00 96 1020.5
20260906112725 64 70 0.0 0.0 0.00 0.00 0.00 96 1020.3
20260906112222 64 74 0.0 0.0 0.00 0.00 0.00 96 1020.3
20260906111721 65 61 0.0 0.0 0.00 0.00 0.00 96 1020.5
20260906111216 65 68 0.0 0.0 0.00 0.00 0.00 96 1020.2
20260906110711 65 67 0.0 0.0 0.00 0.00 0.00 96 1020.0
20260906110206 65 74 0.0 0.0 0.00 0.00 0.00 96 1020.0
20260906105700 65 75 0.0 0.0 0.00 0.00 0.00 96 1020.1
20260906105156 65 65 0.0 0.0 0.00 0.00 0.00 96 1020.2
20260906104655 65 74 0.0 0.0 0.00 0.00 0.00 96 1020.0
20260906104149 65 75 0.0 0.0 0.00 0.00 0.00 96 1019.9
20260906103647 65 75 0.0 0.0 0.00 0.00 0.00 96 1020.2
20260906103142 65 73 0.0 0.0 0.00 0.00 0.00 96 1020.4
20260906102637 65 72 0.0 0.0 0.00 0.00 0.00 96 1020.2
20260906102131 65 76 0.0 0.0 0.00 0.00 0.00 96 1020.1
20260906101626 65 64 0.0 0.0 0.00 0.00 0.00 96 1020.1
20260906101126 65 73 0.0 0.0 0.00 0.00 0.00 96 1020.0
20260906100622 65 69 0.0 0.0 0.00 0.00 0.00 96 1020.3
20260906100122 65 68 0.0 0.0 0.00 0.00 0.00 96 1020.2
20260906095616 65 62 0.0 0.0 0.00 0.00 0.00 96 1020.0
20260906095112 65 62 0.0 0.0 0.00 0.00 0.00 96 1020.1
20260906094611 65 75 0.0 0.0 0.00 0.00 0.00 95 1020.0
20260906094107 65 67 0.0 0.0 0.00 0.00 0.00 95 1019.6
20260906093603 65 65 0.0 0.0 0.00 0.00 0.00 95 1019.7
20260906093057 65 70 0.0 0.0 0.00 0.00 0.00 95 1019.6
20260906092553 65 74 0.0 0.0 0.00 0.00 0.00 95 1019.6
20260906092047 65 42 0.0 1.0 0.00 0.00 0.00 94 1019.5
20260906091543 66 73 0.0 0.0 0.00 0.00 0.00 94 1019.7
20260906091040 66 58 0.0 0.0 0.00 0.00 0.00 94 1019.9
20260906090539 66 70 0.0 0.0 0.00 0.00 0.00 94 1019.9
20260906090034 66 71 0.0 0.0 0.00 0.00 0.00 94 1019.9
20260906085533 66 73 0.0 0.0 0.00 0.00 0.00 94 1020.0
20260906085033 66 64 1.0 1.0 0.00 0.00 0.00 95 1019.9
20260906084528 66 70 0.0 0.0 0.00 0.00 0.00 95 1019.9
20260906084026 66 72 0.0 0.0 0.00 0.00 0.00 95 1019.6
20260906083522 65 43 0.0 0.0 0.00 0.00 0.00 95 1019.9
20260906083022 65 39 1.0 1.0 0.00 0.00 0.00 95 1019.5
20260906082517 65 70 0.0 0.0 0.00 0.00 0.00 95 1019.6
20260906082013 65 61 0.0 0.0 0.00 0.00 0.00 95 1019.6
20260906081508 65 64 0.0 0.0 0.00 0.00 0.00 95 1019.6
20260906081004 65 72 0.0 0.0 0.00 0.00 0.00 95 1019.6
20260906080500 65 70 0.0 0.0 0.00 0.00 0.00 95 1019.6
20260906075955 66 70 0.0 0.0 0.00 0.00 0.00 94 1019.5
20260906075450 66 72 0.0 0.0 0.00 0.00 0.00 94 1019.4
20260906074945 66 72 0.0 0.0 0.00 0.00 0.00 94 1019.6
20260906074439 66 61 0.0 0.0 0.00 0.00 0.00 94 1019.4
20260906073937 66 34 2.0 2.0 0.00 0.00 0.00 94 1019.4
20260906073433 66 50 1.0 1.0 0.00 0.00 0.00 94 1019.6
20260906072929 66 44 0.0 0.0 0.00 0.00 0.00 94 1019.4
20260906072424 66 63 1.0 1.0 0.00 0.00 0.00 94 1019.2
20260906071920 66 70 0.0 0.0 0.00 0.00 0.00 94 1019.4
20260906071416 66 71 0.0 0.0 0.00 0.00 0.00 95 1019.4
20260906070912 66 66 1.0 1.0 0.00 0.00 0.00 95 1019.4
20260906070407 66 32 0.0 0.0 0.00 0.00 0.00 95 1019.2
20260906065902 66 55 1.0 1.0 0.00 0.00 0.00 95 1019.3
20260906065356 66 74 0.0 0.0 0.00 0.00 0.00 95 1019.4
20260906064852 66 60 1.0 2.0 0.00 0.00 0.00 96 1019.6
20260906064343 66 71 0.0 0.0 0.00 0.00 0.00 96 1019.5
20260906063842 66 74 0.0 0.0 0.00 0.00 0.00 96 1019.3
20260906063338 66 71 0.0 0.0 0.00 0.00 0.00 96 1019.6
20260906062833 66 73 0.0 0.0 0.00 0.00 0.00 96 1019.5
20260906062332 66 38 0.0 1.0 0.00 0.00 0.00 96 1019.5
20260906061828 66 59 0.0 1.0 0.00 0.00 0.00 96 1019.5
20260906061324 66 76 0.0 0.0 0.00 0.00 0.00 96 1019.4
20260906060819 66 74 0.0 0.0 0.00 0.00 0.00 96 1019.4
20260906060317 66 68 0.0 0.0 0.00 0.00 0.00 96 1019.5
20260906055812 66 62 0.0 1.0 0.00 0.00 0.00 96 1019.2
20260906055307 66 60 1.0 1.0 0.00 0.00 0.00 97 1019.1
20260906054802 66 63 1.0 1.0 0.00 0.00 0.00 97 1019.2
20260906054258 66 42 1.0 2.0 0.00 0.00 0.00 97 1019.4
20260906053754 66 53 0.0 0.0 0.00 0.00 0.00 97 1019.3
20260906053250 66 64 0.0 0.0 0.00 0.00 0.00 96 1019.2
20260906052744 66 73 0.0 0.0 0.00 0.00 0.00 96 1019.5
20260906052240 66 72 0.0 0.0 0.00 0.00 0.00 96 1019.2
20260906051738 66 74 0.0 0.0 0.00 0.00 0.00 96 1019.3
20260906051237 66 67 0.0 1.0 0.00 0.00 0.00 96 1019.1
20260906050732 66 73 0.0 0.0 0.00 0.00 0.00 96 1019.1
20260906050228 66 50 0.0 1.0 0.00 0.00 0.00 96 1019.0
20260906045726 66 54 1.0 1.0 0.00 0.00 0.00 96 1019.3
20260906045221 66 68 0.0 0.0 0.00 0.00 0.00 96 1019.1
20260906044717 67 71 0.0 0.0 0.00 0.00 0.00 96 1019.2
20260906044212 67 61 1.0 1.0 0.00 0.00 0.00 95 1019.1
20260906043708 67 70 1.0 2.0 0.00 0.00 0.00 95 1018.8
20260906043204 67 63 0.0 0.0 0.00 0.00 0.00 95 1018.7
20260906042703 67 70 0.0 0.0 0.00 0.00 0.00 95 1018.7
20260906042157 67 57 1.0 1.0 0.00 0.00 0.00 95 1018.7
20260906041653 67 84 1.0 2.0 0.00 0.00 0.00 95 1018.7
20260906041148 67 81 0.0 1.0 0.00 0.00 0.00 94 1018.8
20260906040643 67 32 2.0 2.0 0.00 0.00 0.00 94 1018.8
20260906040139 67 71 0.0 0.0 0.00 0.00 0.00 94 1018.7
20260906035633 67 50 1.0 1.0 0.00 0.00 0.00 94 1018.6
20260906035129 67 49 2.0 2.0 0.00 0.00 0.00 93 1018.7
20260906034624 67 83 1.0 1.0 0.00 0.00 0.00 93 1018.8
20260906034118 68 74 0.0 0.0 0.00 0.00 0.00 93 1018.7
20260906033614 68 54 1.0 1.0 0.00 0.00 0.00 93 1018.7
20260906033109 68 62 0.0 0.0 0.00 0.00 0.00 92 1018.9
20260906032606 68 61 1.0 1.0 0.00 0.00 0.00 93 1018.6
20260906032105 68 56 2.0 2.0 0.00 0.00 0.00 93 1018.8
20260906031601 68 24 3.0 3.0 0.00 0.00 0.00 92 1018.7
20260906031057 68 52 1.0 1.0 0.00 0.00 0.00 92 1018.7
20260906030555 68 14 2.0 3.0 0.00 0.00 0.00 92 1018.5
20260906030049 68 56 1.0 2.0 0.00 0.00 0.00 92 1018.7
20260906025544 68 38 3.0 3.0 0.00 0.00 0.00 92 1018.7
20260906025043 68 75 0.0 1.0 0.00 0.00 0.00 92 1018.6
20260906024538 68 54 3.0 5.0 0.00 0.00 0.00 92 1018.5
20260906024037 68 62 3.0 3.0 0.00 0.00 0.00 92 1018.7
20260906023534 68 57 4.0 6.0 0.00 0.00 0.00 92 1018.4
20260906023028 68 59 1.0 2.0 0.00 0.00 0.00 91 1018.5
20260906022524 68 58 2.0 3.0 0.00 0.00 0.00 91 1018.4
20260906022019 68 40 2.0 2.0 0.00 0.00 0.00 91 1018.5
20260906021515 68 63 1.0 1.0 0.00 0.00 0.00 91 1018.4
20260906021009 68 50 1.0 1.0 0.00 0.00 0.00 91 1018.3
20260906020508 68 53 3.0 3.0 0.00 0.00 0.00 91 1018.3
20260906020007 68 63 1.0 1.0 0.00 0.00 0.00 91 1018.6
20260906015501 69 52 2.0 3.0 0.00 0.00 0.00 90 1018.4
20260906015001 69 64 1.0 2.0 0.00 0.00 0.00 90 1018.3
20260906014456 69 69 1.0 1.0 0.00 0.00 0.00 90 1018.5
20260906013952 69 56 1.0 1.0 0.00 0.00 0.00 90 1018.7
20260906013447 69 38 1.0 1.0 0.00 0.00 0.00 89 1018.5
20260906012943 69 64 1.0 1.0 0.00 0.00 0.00 90 1018.5
20260906012437 69 7 1.0 2.0 0.00 0.00 0.00 90 1018.6
20260906011936 69 66 1.0 1.0 0.00 0.00 0.00 90 1018.5
20260906011432 69 43 2.0 2.0 0.00 0.00 0.00 89 1018.3
20260906010927 70 26 3.0 3.0 0.00 0.00 0.00 89 1018.5
20260906010422 70 76 0.0 0.0 0.00 0.00 0.00 89 1018.5
20260906005919 70 333 3.0 3.0 0.00 0.00 0.00 88 1018.6
20260906005418 70 77 1.0 2.0 0.00 0.00 0.00 87 1018.5
20260906004916 70 58 1.0 2.0 0.00 0.00 0.00 87 1018.3
20260906004411 70 41 3.0 3.0 0.00 0.00 0.00 87 1018.5
20260906003907 70 64 3.0 6.0 0.00 0.00 0.00 87 1018.4
20260906003402 70 73 2.0 3.0 0.00 0.00 0.00 88 1018.4
20260906002857 70 352 3.0 3.0 0.00 0.00 0.00 88 1018.4
20260906002356 70 37 1.0 1.0 0.00 0.00 0.00 88 1018.3
20260906001852 70 90 3.0 5.0 0.00 0.00 0.00 89 1018.2
20260906001348 70 62 2.0 2.0 0.00 0.00 0.00 89 1018.2
20260906000843 70 65 1.0 1.0 0.00 0.00 0.00 90 1018.2
20260906000342 70 61 3.0 5.0 0.00 0.00 0.00 91 1018.2
20260905235837 70 66 1.0 1.0 0.00 0.00 0.00 91 1018.3
20260905235332 70 9 4.0 6.0 0.00 0.00 0.00 91 1018.6
20260905234827 70 41 1.0 2.0 0.00 0.00 0.00 91 1018.3
20260905234322 70 69 0.0 1.0 0.00 0.00 0.00 91 1018.3
20260905233817 70 28 0.0 2.0 0.00 0.00 0.00 91 1018.3
20260905233312 70 25 2.0 3.0 0.00 0.00 0.00 92 1018.5
20260905232811 70 57 2.0 2.0 0.00 0.00 0.00 92 1018.3
20260905232308 70 59 3.0 3.0 0.00 0.00 0.00 92 1018.4
20260905231803 70 16 3.0 3.0 0.00 0.00 0.00 92 1018.4
20260905231258 70 53 1.0 1.0 0.00 0.00 0.00 92 1018.5
20260905230754 70 44 3.0 5.0 0.00 0.00 0.00 92 1018.5
20260905230252 70 42 1.0 1.0 0.00 0.00 0.00 92 1018.3
20260905225752 70 51 3.0 3.0 0.00 0.00 0.00 92 1018.3
20260905225247 71 70 2.0 3.0 0.00 0.00 0.00 92 1018.6
20260905224746 71 33 2.0 2.0 0.00 0.00 0.00 91 1018.5
20260905224242 71 349 3.0 5.0 0.00 0.00 0.00 90 1018.7
20260905223737 71 81 1.0 2.0 0.00 0.00 0.00 90 1018.6
20260905223234 71 79 3.0 5.0 0.00 0.00 0.00 90 1018.4
20260905222730 71 90 0.0 1.0 0.00 0.00 0.00 90 1018.3
20260905222229 71 43 3.0 5.0 0.00 0.00 0.00 90 1018.3
20260905221725 72 69 3.0 5.0 0.00 0.00 0.00 89 1018.1
20260905221222 72 55 3.0 3.0 0.00 0.00 0.00 90 1017.9
20260905220717 72 57 3.0 3.0 0.00 0.00 0.00 90 1017.9
20260905220213 71 67 2.0 2.0 0.00 0.00 0.00 90 1017.9
20260905215712 72 63 2.0 2.0 0.00 0.00 0.00 90 1017.9
20260905215208 72 67 2.0 2.0 0.00 0.00 0.00 90 1017.7
20260905214704 72 30 2.0 3.0 0.00 0.00 0.00 90 1017.8
20260905214159 72 47 0.0 1.0 0.00 0.00 0.00 90 1017.7
20260905213654 72 66 3.0 3.0 0.00 0.00 0.00 89 1017.8
20260905213150 72 58 3.0 3.0 0.00 0.00 0.00 89 1017.6
20260905212645 72 335 1.0 2.0 0.00 0.00 0.00 89 1017.6
20260905212144 73 60 2.0 3.0 0.00 0.00 0.00 88 1017.6
20260905211639 73 49 1.0 1.0 0.00 0.00 0.00 89 1017.7
20260905211134 73 41 0.0 1.0 0.00 0.00 0.00 89 1017.4
20260905210631 73 47 2.0 3.0 0.00 0.00 0.00 88 1017.4
20260905210126 73 71 1.0 1.0 0.00 0.00 0.00 88 1017.4
20260905205624 74 45 7.0 8.0 0.00 0.00 0.00 87 1017.7
20260905205119 74 85 4.0 7.0 0.00 0.00 0.00 87 1017.6
20260905204618 75 49 3.0 3.0 0.00 0.00 0.00 86 1017.6
20260905204113 74 306 3.0 5.0 0.00 0.00 0.00 87 1017.5
20260905203608 75 70 3.0 5.0 0.00 0.00 0.00 87 1017.4
20260905203103 75 68 3.0 3.0 0.00 0.00 0.00 85 1017.5
20260905202558 75 45 2.0 2.0 0.00 0.00 0.00 86 1017.4
20260905202048 76 48 3.0 5.0 0.00 0.00 0.00 85 1017.4
20260905201544 76 17 2.0 3.0 0.00 0.00 0.00 86 1017.7
20260905201043 76 46 3.0 3.0 0.00 0.00 0.00 86 1017.4
20260905200539 76 65 3.0 3.0 0.00 0.00 0.00 86 1017.4
20260905200038 76 30 2.0 2.0 0.00 0.00 0.00 86 1017.4
20260905195532 75 46 4.0 5.0 0.00 0.00 0.00 87 1017.4
20260905195028 74 50 1.0 1.0 0.00 0.00 0.00 89 1017.5
20260905194527 75 81 1.0 2.0 0.00 0.00 0.00 88 1017.6
20260905194021 76 71 3.0 5.0 0.00 0.00 0.00 88 1017.5
20260905193516 75 18 4.0 5.0 0.00 0.00 0.00 89 1017.5
20260905193011 76 49 4.0 6.0 0.00 0.00 0.00 88 1017.7
20260905192506 76 29 4.0 6.0 0.00 0.00 0.00 88 1017.6
20260905192003 75 74 3.0 3.0 0.00 0.00 0.00 89 1017.6
20260905191501 75 58 2.0 2.0 0.00 0.00 0.00 89 1017.6
20260905191001 75 98 2.0 3.0 0.00 0.00 0.00 89 1017.3
20260905190459 76 90 4.0 5.0 0.00 0.00 0.00 88 1017.4
20260905185957 77 38 4.0 7.0 0.00 0.00 0.00 86 1017.6
20260905185453 78 63 2.0 3.0 0.00 0.00 0.00 86 1017.7
20260905184951 77 43 3.0 5.0 0.00 0.00 0.00 87 1017.5
20260905184446 77 36 4.0 5.0 0.00 0.00 0.00 87 1017.5
20260905183945 77 67 5.0 7.0 0.00 0.00 0.00 86 1017.6
20260905183439 79 313 4.0 6.0 0.00 0.00 0.00 84 1017.5
20260905182935 78 78 1.0 2.0 0.00 0.00 0.00 83 1017.5
20260905182434 78 54 3.0 3.0 0.00 0.00 0.00 84 1017.3
20260905181929 78 14 3.0 3.0 0.00 0.00 0.00 84 1017.4
20260905181429 78 59 2.0 2.0 0.00 0.00 0.00 84 1017.6
20260905180929 78 39 3.0 5.0 0.00 0.00 0.00 84 1017.1
20260905180424 78 17 3.0 3.0 0.00 0.00 0.00 85 1017.5
20260905175918 78 13 4.0 6.0 0.00 0.00 0.00 84 1017.5
20260905175418 78 34 2.0 2.0 0.00 0.00 0.00 84 1017.4
20260905174913 78 46 5.0 6.0 0.00 0.00 0.00 84 1017.4
20260905174409 78 54 1.0 2.0 0.00 0.00 0.00 85 1017.4
20260905173904 78 65 3.0 3.0 0.00 0.00 0.00 84 1017.5
20260905173401 78 72 2.0 2.0 0.00 0.00 0.00 85 1017.5
20260905172855 77 23 0.0 1.0 0.00 0.00 0.00 86 1017.4
20260905172353 76 82 0.0 1.0 0.00 0.00 0.00 87 1017.6
20260905171849 76 65 1.0 2.0 0.00 0.00 0.00 87 1017.4
20260905171346 76 69 1.0 2.0 0.00 0.00 0.00 87 1017.5
20260905170842 76 28 0.0 1.0 0.00 0.00 0.00 87 1017.7
20260905170338 76 38 2.0 2.0 0.00 0.00 0.00 87 1017.6
20260905165837 76 45 2.0 3.0 0.00 0.00 0.00 87 1017.6
20260905165333 76 75 1.0 2.0 0.00 0.00 0.00 87 1017.7
20260905164832 77 74 3.0 3.0 0.00 0.00 0.00 86 1017.6
20260905164328 77 50 1.0 2.0 0.00 0.00 0.00 86 1017.8
20260905163823 77 39 2.0 2.0 0.00 0.00 0.00 86 1017.5
20260905163319 77 325 2.0 2.0 0.00 0.00 0.00 85 1017.5
20260905162815 76 43 1.0 1.0 0.00 0.00 0.00 86 1017.6
20260905162309 76 43 2.0 3.0 0.00 0.00 0.00 87 1017.4
20260905161804 76 54 3.0 5.0 0.00 0.00 0.00 87 1017.7
20260905161303 76 65 1.0 2.0 0.00 0.00 0.00 88 1017.8
20260905160801 75 9 3.0 3.0 0.00 0.00 0.00 89 1017.6
20260905160255 75 65 2.0 3.0 0.00 0.00 0.00 89 1017.5
20260905155750 75 68 4.0 5.0 0.00 0.00 0.00 88 1017.8
20260905155249 75 45 1.0 2.0 0.00 0.00 0.00 89 1017.6
20260905154743 75 46 1.0 2.0 0.00 0.00 0.00 90 1017.4
20260905154239 75 57 3.0 5.0 0.00 0.00 0.00 89 1017.6
20260905153735 75 48 1.0 2.0 0.00 0.00 0.00 89 1017.3
20260905153230 75 357 3.0 3.0 0.00 0.00 0.00 89 1017.4
20260905152725 75 41 2.0 3.0 0.00 0.00 0.00 88 1017.3
20260905152225 75 33 2.0 3.0 0.00 0.00 0.00 88 1017.4
20260905151725 76 55 4.0 5.0 0.00 0.00 0.00 87 1017.4
20260905151221 76 43 1.0 2.0 0.00 0.00 0.00 87 1017.2
20260905150721 76 58 3.0 3.0 0.00 0.00 0.00 87 1017.2
20260905150220 75 49 2.0 3.0 0.00 0.00 0.00 89 1017.2
20260905145718 75 79 1.0 1.0 0.00 0.00 0.00 89 1017.2
20260905145213 75 35 2.0 3.0 0.00 0.00 0.00 89 1017.2
20260905144712 74 86 0.0 0.0 0.00 0.00 0.00 90 1017.2
20260905144212 74 69 0.0 1.0 0.00 0.00 0.00 91 1016.8
20260905143712 73 62 1.0 2.0 0.00 0.00 0.00 92 1016.7
20260905143212 73 33 2.0 2.0 0.00 0.00 0.00 92 1016.9
20260905142710 73 350 5.0 7.0 0.00 0.00 0.00 92 1016.6
20260905142205 73 7 1.0 2.0 0.00 0.00 0.00 93 1016.7
20260905141701 73 46 1.0 1.0 0.00 0.00 0.00 94 1016.8
20260905141156 72 76 1.0 2.0 0.00 0.00 0.00 94 1017.0
20260905140651 72 25 3.0 6.0 0.00 0.00 0.00 95 1016.7
20260905140145 72 86 4.0 6.0 0.00 0.00 0.00 96 1016.8
20260905135640 71 62 3.0 3.0 0.00 0.00 0.00 96 1016.7
20260905135136 71 86 0.0 0.0 0.00 0.00 0.00 96 1016.9
20260905134630 71 52 3.0 3.0 0.00 0.00 0.00 96 1017.0
20260905134129 71 75 1.0 1.0 0.00 0.00 0.00 97 1016.7
20260905133625 71 343 2.0 2.0 0.00 0.00 0.00 97 1016.7